Location: Colle San Luigi
(43.5500°N, 13.4167°E)
Time: 00:33:04
(UTC+00:00)

H-2A R/B - Pass Details

Date: 09 April 2020
Orbit: 734 x 836 km, 98.2° (Epoch: 02 June)

Event Time Altitude Azimuth Distance (km) Brightness Sun altitude
Rises 18:15:25 0° 155° (SSE) 3,290 4.9 -6.5°
Reaches altitude 10° 18:17:47 10° 152° (SSE) 2,349 4.1 -6.9°
Maximum altitude 18:22:54 62° 73° (ENE) 871 2.1 -7.8°
Drops below altitude 10° 18:27:53 10° 353° (N) 2,300 4.8 -8.7°
Sets 18:30:11 0° 351° (N) 3,217 5.7 -9.0°
